www.pogodaiklimat.ru

Погода и климат >> Архив погоды >> Норвегия >> Аэропорт Vaeroy Heliport


ПОГОДА в Аэропорту Vaeroy Heliport

  • Прогноз погоды в Аэропорту Vaeroy Heliport
  • Монитор погоды в Аэропорту Vaeroy Heliport

АРХИВ ПОГОДЫ в Аэропорту Vaeroy Heliport

Время (UTC), дата Ветер
(напр.,м/с)
 
Видим.   Явления Облачность Т
(С)
Тd
(С)
f
(%)
Тe
(С)
Тes
(С)
Комфортность P
(гПа)
Po
(гПа)
Тmin
(С)
Tmax
(С)
R
(мм)
R24
(мм)
S
(см)
19 16.03 С 5
{9}
н/о н/о +0.6 -7.3 55 -5 -5 1001.4 1000.9
20 16.03 С 4
{9}
н/о н/о +0.1 -8.4 53 -5 -5 1001.6 1001.1
21 16.03
{8}
н/о н/о +0.4 -7.5 55 1001.7 1001.2
22 16.03 С 4
{8}
н/о н/о +0.2 -8.1 54 -5 -5 1001.7 1001.2
23 16.03 С 3
{5}
н/о н/о 0.0 -8.1 54 -4 -4 1001.7 1001.2
00 17.03 СЗ 2
{9}
н/о н/о -2.0 -8.1 63 -5 -5 1001.5 1001.0
01 17.03 СЗ 2
{2}
н/о н/о -1.7 -7.8 63 -5 -5 1001.4 1000.9
02 17.03 СЗ 2
{2}
н/о н/о -1.8 -7.8 64 -5 -5 1001.3 1000.8
03 17.03 СЗ 1
{2}
н/о н/о -1.9 -7.3 67 -4 -4 1001.0 1000.5
04 17.03 СВ 2
{3}
н/о н/о -0.6 -6.8 63 -4 -4 1000.9 1000.4
05 17.03 СВ 4
{5}
н/о н/о +0.5 -5.3 65 -4 -4 1000.7 1000.2
06 17.03 СВ 6
{7}
н/о н/о +0.7 -5.5 63 -5 -5 1000.8 1000.3 -2.2 +0.8
07 17.03 СВ 7
{9}
н/о н/о +1.2 -3.5 71 -5 -5 1000.9 1000.4
08 17.03 СВ 8
{10}
н/о н/о +1.4 -3.0 72 -5 -5 1001.1 1000.6
09 17.03 СВ 8
{10}
н/о н/о +1.5 -2.9 73 -5 -5 1001.2 1000.7
10 17.03 СВ 10
{12}
н/о н/о +1.6 -3.4 69 -6 -6 1001.1 1000.6
11 17.03 СВ 10
{11}
н/о н/о +1.5 -3.0 72 -6 -6 1000.8 1000.3
12 17.03 СВ 10
{12}
н/о н/о +1.2 -3.3 72 -6 -6 1000.7 1000.2
13 17.03 СВ 12
{14}
н/о н/о +1.5 -3.8 68 -6 -6 1000.6 1000.1
14 17.03 СВ 12 н/о н/о +1.4 -4.1 67 -7 -7 1000.3 999.8
15 17.03 СВ 12
{15}
н/о н/о +1.1 -3.8 70 -7 -7 1000.3 999.8
16 17.03 СВ 13
{15}
н/о н/о +0.9 -4.7 66 -7 -7 1000.1 999.6
17 17.03 СВ 12
{15}
н/о н/о +0.9 -4.6 67 -7 -7 1000.0 999.5
18 17.03 СВ 11
{15}
н/о н/о +1.0 -4.7 66 -7 -7 1000.0 999.5 +0.7 +1.7
19 17.03 СВ 11
{14}
н/о н/о +0.8 -5.6 62 -7 -7 999.8 999.3
20 17.03 СВ 10
{13}
н/о н/о +0.8 -6.3 59 -7 -7 999.8 999.3
21 17.03 СВ 10
{12}
н/о н/о +0.7 -6.1 60 -7 -7 999.6 999.1
22 17.03 СВ 10
{12}
н/о н/о +0.7 -7.9 53 -7 -7 999.5 999.0
23 17.03 СВ 10
{12}
н/о н/о +0.6 -7.4 55 -7 -7 999.5 999.0
00 18.03 СВ 10
{14}
н/о н/о +0.7 -7.1 56 -7 -7 999.4 998.9
01 18.03 СВ 9
{12}
н/о н/о +0.7 -7.4 55 -6 -6 999.4 998.9
02 18.03 СВ 10
{12}
н/о н/о +0.7 -6.1 60 -7 -7 999.5 999.0
03 18.03 СВ 10
{13}
н/о н/о +0.6 -6.0 61 -7 -7 999.7 999.2
04 18.03 СВ 9
{12}
н/о н/о +0.5 -4.9 67 -7 -7 1000.0 999.5
05 18.03 С 10
{12}
н/о н/о +0.3 -4.3 71 -8 -8 1000.1 999.6
06 18.03 СВ 9
{13}
н/о н/о +0.1 -5.1 68 -7 -7 1000.5 1000.0 0.0 +1.0
07 18.03 СВ 8
{11}
н/о н/о +0.3 -5.4 66 -7 -7 1000.8 1000.3
08 18.03 СВ 7
{10}
н/о н/о +0.6 -5.6 63 -6 -6 1001.3 1000.8
09 18.03 С 4
{8}
н/о н/о +0.9 -6.6 57 -4 -4 1001.8 1001.3
10 18.03 С 5
{8}
н/о н/о +1.3 -6.9 54 -4 -4 1002.3 1001.8
11 18.03 С 6
{8}
н/о н/о +1.3 -6.3 57 -4 -4 1002.9 1002.4
12 18.03 С 5
{11}
н/о н/о +1.4 -6.3 57 -4 -4 1003.6 1003.1
13 18.03 С 6
{10}
н/о н/о +1.3 -6.2 57 -4 -4 1004.3 1003.8
14 18.03 С 6
{10}
н/о н/о +1.6 -4.9 62 -4 -4 1004.8 1004.3
15 18.03 С 7
{12}
н/о н/о +1.2 -4.9 64 -5 -5 1005.8 1005.3
16 18.03 С 7
{11}
н/о н/о +1.4 -4.0 67 -5 -5 1006.5 1006.0
17 18.03 С 6
{12}
н/о н/о +1.1 -5.4 62 -5 -5 1007.5 1007.0
18 18.03 СЗ 5
{12}
н/о н/о +1.2 -5.0 63 -4 -4 1008.3 1007.8 +0.1 +1.7
19 18.03 С 6
{11}
н/о н/о +1.2 -5.2 62 -5 -5 1009.1 1008.6
20 18.03 СЗ 5
{9}
н/о н/о +1.3 -5.2 62 -4 -4 1010.0 1009.5
21 18.03 СЗ 3
{9}
н/о н/о +1.3 -5.3 61 -3 -3 1010.6 1010.1
22 18.03 С 2
{8}
н/о н/о +1.0 -4.9 65 -2 -2 1011.2 1010.7
23 18.03 СЗ 1
{5}
н/о н/о +0.4 -5.2 66 -1 -1 1011.6 1011.1
00 19.03 ЮЗ 1
{11}
н/о н/о +0.6 -4.2 70 -1 -1 1012.0 1011.5
01 19.03 З 2
{2}
н/о н/о -0.9 -5.0 74 -4 -4 1012.2 1011.6
02 19.03 Ю 3
{5}
н/о н/о +1.3 -2.2 77 -3 -3 1012.7 1012.2
03 19.03 ЮЗ 3
{7}
н/о н/о +2.3 -1.9 74 -2 -2 1012.9 1012.4
04 19.03 ЮЗ 5
{10}
н/о н/о +2.8 -2.9 66 -2 -2 1012.8 1012.3
05 19.03 ЮЗ 5
{7}
н/о н/о +3.0 -1.8 71 -2 -2 1013.1 1012.6
06 19.03 Ю 8
{10}
н/о н/о +3.1 -1.7 71 -3 -3 1012.9 1012.4 -1.4 +3.1
07 19.03 ЮЗ 7
{10}
н/о н/о +3.3 -0.9 74 -3 -3 1012.7 1012.2
08 19.03 Ю 11
{14}
н/о н/о +3.2 -0.1 79 -4 -4 1012.6 1012.1
09 19.03 Ю 12
{15}
н/о н/о +3.4 +0.4 81 -4 -4 1012.6 1012.1
10 19.03 Ю 11
{14}
н/о н/о +3.5 +0.6 81 -4 -4 1012.4 1011.9
11 19.03 Ю 13
{16}
н/о н/о +3.6 +1.1 84 -4 -4 1012.0 1011.5
12 19.03 Ю 13
{17}
н/о н/о +3.9 +1.2 83 -4 -4 1011.4 1010.9
13 19.03 Ю 14
{18}
н/о н/о +3.5 +1.4 86 -5 -5 1010.9 1010.4
14 19.03 Ю 13
{17}
н/о н/о +3.7 +1.5 86 -4 -4 1010.3 1009.8
15 19.03 Ю 14
{18}
н/о н/о +3.7 +1.5 86 -4 -4 1009.6 1009.1
16 19.03 Ю 14
{20}
н/о н/о +3.1 +0.9 85 -5 -5 1008.9 1008.4
17 19.03 Ю 14
{19}
н/о н/о +3.8 +0.7 80 -4 -4 1007.6 1007.1
18 19.03 Ю 15
{20}
н/о н/о +3.5 +0.8 82 -5 -5 1006.4 1005.9 +3.0 +4.0
19 19.03 Ю 15
{21}
н/о н/о +3.7 +0.2 78 -4 -4 1005.3 1004.8
20 19.03 Ю 15
{21}
н/о н/о +3.7 -0.6 73 -4 -4 1003.8 1003.3
21 19.03 Ю 17
{23}
н/о н/о +3.8 -1.3 69 -4 -4 1002.4 1001.9
22 19.03 Ю 18
{23}
н/о н/о +2.7 -0.1 82 -6 -6 1000.8 1000.3
23 19.03 Ю 19
{23}
н/о н/о +2.3 +0.8 90 -7 -7 999.4 998.9
00 20.03 Ю 18
{23}
н/о н/о +2.1 +0.6 90 -7 -7 997.9 997.4
01 20.03 Ю 16
{23}
н/о н/о +2.5 +1.2 91 -6 -6 997.0 996.5
02 20.03 Ю 16
{22}
н/о н/о +3.1 +1.6 90 -6 -6 996.2 995.7
03 20.03 Ю 16
{21}
н/о н/о +3.2 +1.8 91 -5 -5 995.9 995.4
04 20.03 ЮЗ 10
{19}
н/о н/о +4.2 +2.8 91 -3 -3 996.2 995.7
05 20.03 ЮЗ 9
{16}
н/о н/о +5.1 +2.4 83 -1 -1 996.6 996.1
06 20.03 ЮЗ 7
{23}
н/о н/о +5.2 +1.2 75 -0 -0 997.2 996.7 +2.0 +5.3
07 20.03 ЮЗ 7
{14}
н/о н/о +5.0 +1.2 76 -0 -0 998.0 997.5
08 20.03 З 4
{10}
н/о н/о +5.0 +1.4 78 +1 +1 998.6 998.1
09 20.03 ЮЗ 5
{11}
н/о н/о +5.9 +1.6 74 +2 +2 999.3 998.8
10 20.03 ЮЗ 6
{9}
н/о н/о +5.9 +2.2 77 +1 +1 999.6 999.1
11 20.03 ЮЗ 7
{11}
н/о н/о +5.4 +2.4 81 0 0 1000.0 999.5
12 20.03 ЮЗ 6
{14}
н/о н/о +5.8 +2.3 78 +1 +1 1000.2 999.7
13 20.03 ЮЗ 8
{13}
н/о н/о +3.9 +1.3 83 -2 -2 1000.6 1000.2
14 20.03 ЮЗ 7
{10}
н/о н/о +4.5 +2.6 87 -1 -1 1000.8 1000.3
15 20.03 ЮЗ 8
{14}
н/о н/о +4.9 +2.0 81 -1 -1 1001.0 1000.5
16 20.03 ЮЗ 8
{15}
н/о н/о +4.6 +1.8 82 -1 -1 1001.3 1000.8
17 20.03 ЮЗ 8
{14}
н/о н/о +4.9 +1.1 76 -1 -1 1001.8 1001.3
18 20.03 ЮЗ 7
{16}
н/о н/о +4.8 +0.7 75 -1 -1 1002.3 1001.8 +3.7 +6.1
19 20.03 ЮЗ 10
{16}
н/о н/о +4.7 +1.1 77 -2 -2 1002.6 1002.1
20 20.03 ЮЗ 7
{17}
н/о н/о +4.3 +0.6 77 -1 -1 1002.8 1002.3
21 20.03 З 7
{16}
н/о н/о +3.9 -0.4 74 -2 -2 1003.4 1002.9
22 20.03 ЮЗ 6
{12}
н/о н/о +4.4 -1.2 67 -1 -1 1003.7 1003.2
23 20.03 З 5
{17}
н/о н/о +3.8 -0.6 73 -1 -1 1004.1 1003.6
00 21.03 ЮЗ 7
{17}
н/о н/о +3.9 0.0 76 -2 -2 1003.9 1003.4
01 21.03 ЮЗ 8
{13}
н/о н/о +4.3 -0.2 73 -2 -2 1003.4 1002.9
02 21.03 ЮЗ 6
{13}
н/о н/о +4.2 +1.0 80 -1 -1 1002.4 1001.9
03 21.03 ЮЗ 3
{9}
н/о н/о +3.6 +0.3 79 -0 -0 1001.5 1001.0
04 21.03 Ю 9
{12}
н/о н/о +4.0 +1.7 85 -3 -3 1000.2 999.7
05 21.03 Ю 9
{10}
н/о н/о +3.8 +2.1 89 -3 -3 999.0 998.5
06 21.03 Ю 9
{13}
н/о н/о +3.5 +1.7 88 -3 -3 997.9 997.4 +2.9 +4.9
07 21.03 Ю 8
{12}
н/о н/о +2.9 +1.0 87 -4 -4 996.7 996.2
08 21.03 ЮВ 9
{11}
н/о н/о +2.3 +1.0 91 -5 -5 995.3 994.9
09 21.03 ЮВ 8
{13}
н/о н/о +2.0 +1.1 94 -5 -5 994.1 993.7
10 21.03 Ю 9
{11}
н/о н/о +1.4 +0.7 95 -6 -6 994.5 994.0
11 21.03 З 12
{24}
н/о н/о +3.1 +0.4 82 -5 -5 996.0 995.5
12 21.03 З 12
{27}
н/о н/о +3.1 -1.1 74 -4 -4 998.9 998.4
13 21.03 З 7
{23}
н/о н/о +3.0 -2.7 66 -3 -3 1002.1 1001.6
14 21.03 З 7
{26}
н/о н/о +3.3 -5.4 53 -2 -2 1004.4 1003.9
15 21.03 СЗ 8
{23}
н/о н/о +2.1 -4.5 62 -4 -4 1007.5 1007.0
17 21.03 З 5
{18}
н/о н/о +1.6 -3.4 69 -4 -4 1010.2 1009.7
18 21.03 З 5
{26}
н/о н/о +1.7 -4.3 64 -4 -4 1011.3 1010.8 +0.6 +4.0
19 21.03 З 4
{18}
н/о н/о +1.9 -5.4 58 -3 -3 1012.3 1011.8
20 21.03 З 7
{14}
н/о н/о +2.0 -5.3 58 -4 -4 1013.6 1013.1
21 21.03 З 9
{15}
н/о н/о +2.5 -8.2 45 -4 -4 1014.3 1013.8
22 21.03 З 8
{15}
н/о н/о +2.5 -7.7 47 -3 -3 1014.6 1014.1
23 21.03 З 7
{15}
н/о н/о +2.5 -4.9 58 -3 -3 1015.6 1015.1
01 22.03 З 8
{16}
н/о н/о +3.0 -6.5 50 -3 -3 1016.4 1015.9
02 22.03 З 6
{13}
н/о н/о +3.0 -6.2 51 -2 -2 1016.8 1016.3
03 22.03 ЮЗ 8
{14}
н/о н/о +3.6 -5.7 51 -2 -2 1016.7 1016.2
04 22.03 ЮЗ 9
{17}
н/о н/о +3.7 -4.9 53 -2 -2 1016.9 1016.4
05 22.03 ЮЗ 9
{15}
н/о н/о +3.9 -4.6 54 -2 -2 1017.0 1016.5
06 22.03 ЮЗ 6
{17}
н/о н/о +4.0 -3.2 59 -1 -1 1017.0 1016.5 +1.7 +4.0
07 22.03 ЮЗ 9
{12}
н/о н/о +3.5 -0.2 77 -3 -3 1016.4 1015.9
08 22.03 Ю 10
{14}
н/о н/о +2.8 +0.7 86 -4 -4 1016.0 1015.5
09 22.03 Ю 6
{13}
н/о н/о +3.4 +0.9 84 -2 -2 1015.0 1014.5
10 22.03 Ю 10
{13}
н/о н/о +3.5 +1.4 86 -4 -4 1014.0 1013.5
11 22.03 Ю 14
{17}
н/о н/о +3.5 +1.9 89 -5 -5 1012.3 1011.8
12 22.03 Ю 13
{17}
н/о н/о +4.1 +1.3 82 -3 -3 1010.6 1010.1
13 22.03 Ю 14
{17}
н/о н/о +3.9 +1.4 84 -4 -4 1008.7 1008.2
14 22.03 Ю 14
{17}
н/о н/о +3.3 +1.5 88 -5 -5 1006.2 1005.7
15 22.03 Ю 14
{18}
н/о н/о +3.2 +1.6 89 -5 -5 1003.4 1002.9
16 22.03 Ю 15
{19}
н/о н/о +3.8 +1.8 87 -4 -4 1000.7 1000.2
17 22.03 Ю 14
{20}
н/о н/о +4.1 +2.4 89 -4 -4 998.2 997.7
18 22.03 Ю 18
{21}
н/о н/о +5.0 +3.3 89 -3 -3 996.2 995.7 +2.6 +5.0
19 22.03 Ю 20
{24}
н/о н/о +5.4 +3.4 87 -3 -3 994.4 994.0
20 22.03 Ю 16
{24}
н/о н/о +5.5 +3.8 89 -2 -2 993.8 993.3
21 22.03 Ю 14
{22}
н/о н/о +5.8 +4.1 89 -1 -1 993.2 992.7
22 22.03 Ю 14
{19}
н/о н/о +5.9 +3.9 87 -1 -1 992.7 992.2
23 22.03 Ю 13
{18}
н/о н/о +5.9 +4.5 91 -1 -1 991.8 991.3
00 23.03 Ю 11
{24}
н/о н/о +5.4 +3.0 85 -1 -1 991.1 990.6
01 23.03 Ю 14
{16}
н/о н/о +5.6 +3.6 87 -2 -2 989.6 989.1
02 23.03 Ю 12
{16}
н/о н/о +5.8 +3.6 86 -1 -1 988.1 987.7
03 23.03 Ю 17
{23}
н/о н/о +5.8 +2.9 82 -2 -2 986.5 986.0
04 23.03 Ю 14
{21}
н/о н/о +5.1 +1.8 79 -2 -2 985.9 985.4
05 23.03 ЮЗ 15
{24}
н/о н/о +3.6 +0.6 81 -4 -4 985.7 985.2
06 23.03 ЮЗ 11
{24}
н/о н/о +3.9 +1.5 84 -3 -3 984.9 984.4 +3.3 +6.0
07 23.03 ЮЗ 11
{15}
н/о н/о +4.7 +0.7 75 -2 -2 984.2 983.7
08 23.03 Ю 13
{17}
н/о н/о +4.9 +1.2 77 -2 -2 983.2 982.7
09 23.03 Ю 15
{21}
н/о н/о +3.7 +1.0 83 -4 -4 982.5 982.0
10 23.03 Ю 15
{20}
н/о н/о +4.4 +0.3 75 -3 -3 981.1 980.6
11 23.03 ЮЗ 14
{26}
н/о н/о +2.7 +0.5 85 -6 -6 979.8 979.3
12 23.03 ЮЗ 14
{26}
н/о н/о +3.1 +1.0 86 -5 -5 978.4 977.9
13 23.03 ЮЗ 17
{23}
н/о н/о +4.4 -0.7 69 -4 -4 977.7 977.2
14 23.03 ЮЗ 18
{24}
н/о н/о +4.1 0.0 75 -4 -4 976.3 975.8
15 23.03 ЮЗ 18
{26}
н/о н/о +3.8 +0.7 80 -5 -5 974.7 974.3
16 23.03 Ю 17
{25}
н/о н/о +3.8 +2.1 89 -5 -5 972.2 971.7
17 23.03 ЮЗ 16
{24}
н/о н/о +4.6 +2.8 88 -3 -3 970.3 969.9

 

Местоположение метеостанции Аэропорт Vaeroy Heliport (Норвегия): широта 67.65 долгота 12.72 высота над уровнем моря 4 м.

В архиве по умолчанию представлена погода в Аэропорту Vaeroy Heliport за последнюю неделю. Архивные данные за месяц целиком и за предыдущие месяцы, начиная с января 2011 года, Вы можете получить, выбрав интересующий диапазон дат из раскрывающегося списка и нажав кнопку "Ввод!".


*Определитесь, кто Вы:
робот инопланетянин человек

Внимание! Время в таблицах - всемирное. Для получения местного времени необходимо прибавить поправку, которая равна 1 ч.

Смотрите также архив погоды в соседних городах и на ближайших метеорологических станциях:

Погода в Рост аэропорту (Норвегия) (30 км)
Погода в Хеллигвере (Норвегия) (57 км)
Погода в Лекнесе (Норвегия) (68 км)
Погода в Бодо (Норвегия) (82 км)
Погода в Рейпе (Норвегия) (92 км)
Погода на Маяке Skrova (Норвегия) (98 км)
Погода на Мыкене (Норвегия) (98 км)
Погода в Сволваер аэропорту (Норвегия) (105 км)
Погода в Бё (Норвегия) (128 км)
Погода в Сетсе (Норвегия) (130 км)

Пояснения к столбцам:

Ветер - указаны скорость ветра в м/с - средняя за 10 мин, порывы в срок и между сроками (в фигурных скобках) и направление, откуда дует ветер: С - северный, СВ - северо-восточный, В - восточный, ЮВ - юго-восточный, Ю - южный, ЮЗ - юго-западный, З - западный, СЗ - северо-западный.
Видимость - горизонтальная дальность видимости в метрах или километрах. При видимости от 1 до 10 км при отсутствии осадков обычно наблюдается дымка, при ухудшении видимости до 1 км и менее - туман. В сухую погоду видимость может ухудшаться дымом, пылью или мглою.
Явления - указаны атмосферные явления, наблюдавшиеся в срок или в последний час перед сроком; фигурными скобками обозначены явления, наблюдавшиеся между сроками (за 1-3 часа до срока); квадратными скобками обозначены град или гололедные отложения с указанием их диаметра в мм.
Облачность - указаны через наклонную черту общая и нижняя облачность в баллах и высота нижней границы облаков в метрах; квадратными скобками обозначены формы облаков: Ci - перистые, Cs - перисто-слоистые, Cc - перисто-кучевые, Ac - высококучевые, As - высокослоистые, Sc - слоисто-кучевые, Ns - слоисто-дождевые, Cu - кучевые, Cb - кучево-дождевые. Подробнее классификацию облаков см. в Атласе облаков (PDF).
T - Температура воздуха - температура, измеренная на высоте 2 м над землей.
Td - Температура точки росы - температура, при понижении до которой содержащийся в воздухе водяной пар достигнет насыщения.
f - Относительная влажность воздуха - влажноcть воздуха, измеренная на высоте 2 м над землей.
Te - Эффективная температура - температура, которую ощущает одетый по сезону человек в тени. Характеристика душности погоды. При расчете учитывается влияние влажности воздуха и скорости ветра на теплоощущения человека.
Tes - Эффективная температура на солнце - температура, которую ощущает человек, с поправкой на солнечный нагрев. Характеристика знойности погоды. Зависит от высоты солнца над горизонтом, облачности и скорости ветра. Ночью, в пасмурную погоду, а также при ветре 12 м/с и более поправка равна нулю.
P - Атмосферное давление - приведенное к уровню моря атмосферное давление.
Po - Атмосферное давление - измеренное на уровне метеостанции атмосферное давление.
Tmin - Минимальная температура - минимум температуры воздуха на высоте 2 м над землей.
Tmax - Максимальная температура - максимум температуры воздуха на высоте 2 м над землей.
R - Количество осадков - Количество выпавших осадков за период времени, мм. При наведении курсора мыши на число - период времени, за который выпало указанное количество осадков.
R24 - Количество осадков - Количество выпавших осадков за 24 часа, мм.
S - Снежный покров - Высота снежного покрова, см. При наведении курсора мыши на число - состояние снежного покрова и степень покрытия местности в баллах.